Theta_e
287 286 285 284 284 284 282 282 282 282 282 282 282 281 282 281 282 282 282 282 282 282 282 281 282 283 283 282 282 281 280 279 269 271 268 270 272 275 276 277 278 277 278
287 286 285 284 283 282 281 281 282 282 282 281 281 281 281 281 281 281 281 281 281 281 281 280 280 283 281 281 281 280 279 279 272 264 265 268 267 271 272 274 275 277 276
286 285 284 283 282 281 281 281 281 281 281 281 280 280 280 280 281 282 281 281 281 281 281 280 279 279 279 279 278 278 277 278 273 269 266 265 264 267 274 273 275 272 276
286 285 283 283 283 282 282 281 281 281 280 280 280 280 279 280 280 281 281 280 280 281 281 280 279 279 278 277 277 276 275 272 270 266 264 264 264 267 268 272 275 276 271
285 285 284 283 283 282 281 281 280 280 280 280 279 279 279 280 280 279 280 279 279 279 280 280 280 280 283 281 278 277 275 267 265 269 267 265 265 267 269 270 273 274 272
286 284 284 283 282 281 281 280 280 280 279 279 279 279 280 281 285 284 281 279 279 279 278 279 279 279 280 282 281 282 280 274 268 266 263 265 264 264 267 272 274 274 270
285 284 283 282 281 280 280 280 279 279 279 279 279 279 279 280 285 285 283 279 278 278 278 278 278 278 277 275 279 279 279 280 277 271 268 269 267 270 272 273 274 274 271
284 284 282 281 281 280 280 280 279 279 279 279 279 279 279 281 285 284 283 279 278 278 278 278 277 276 277 275 274 274 273 275 275 276 272 271 273 275 274 274 274 275 275
284 283 282 282 281 281 280 279 279 279 279 279 280 280 280 280 285 284 282 278 278 278 279 278 277 276 279 280 275 274 273 274 277 280 279 279 278 278 277 273 271 269 266
284 283 282 282 281 281 280 280 280 280 281 281 281 280 280 281 285 284 282 279 278 278 278 279 279 278 280 280 275 274 272 272 274 274 274 274 274 274 275 271 271 267 266
285 284 282 282 282 281 280 280 280 280 281 280 281 280 280 281 282 285 284 279 279 278 279 278 279 282 281 281 278 274 273 274 276 274 272 272 272 271 271 271 271 270 266
285 284 282 281 281 281 280 280 280 280 279 279 279 279 281 281 282 286 285 284 282 279 278 279 278 282 281 281 277 279 278 277 271 268 268 268 268 268 269 270 271 270 270
280 279 278 279 280 281 279 279 279 279 279 279 279 279 280 281 281 285 286 286 284 280 280 280 281 282 281 280 279 278 273 270 268 264 264 266 268 267 266 265 264 263 262
276 275 275 277 278 277 280 280 280 278 278 279 279 279 280 280 280 281 283 284 284 283 281 280 281 280 278 275 271 274 270 270 270 266 264 263 262 263 262 263 262 260 259
275 276 276 276 276 277 279 280 280 281 281 279 280 281 280 279 280 283 283 282 282 281 276 274 272 271 270 267 266 265 263 263 264 261 261 261 261 261 261 259 258 257 259
276 275 276 276 274 275 276 277 283 284 284 285 286 283 283 284 285 285 285 285 285 284 274 272 273 272 271 270 268 266 262 264 263 260 258 261 261 260 260 259 257 257 258
277 277 276 276 276 276 277 279 279 282 285 286 286 286 286 285 285 286 286 286 286 284 275 275 274 273 272 270 269 268 267 267 263 265 263 262 260 257 259 259 258 257 257
272 273 275 277 278 280 282 282 281 281 280 281 285 286 286 286 286 286 286 286 282 283 279 276 275 274 273 272 271 270 270 265 265 264 262 262 262 261 257 258 258 258 256
273 274 274 276 279 281 284 283 282 282 281 282 282 284 285 286 287 287 287 283 282 281 281 279 277 276 275 274 274 273 272 270 266 264 263 263 262 260 258 259 259 258 257
273 274 274 276 278 279 282 283 283 282 282 282 282 282 282 283 282 283 284 284 283 282 282 281 279 278 277 275 275 274 272 270 268 266 265 265 264 263 263 262 261 257 257
273 274 275 275 277 280 282 282 283 282 282 282 282 284 284 282 281 282 283 283 283 283 282 282 281 278 278 277 276 274 274 272 271 269 268 266 264 263 264 262 262 261 257
270 273 273 276 281 282 282 283 283 283 282 282 282 283 285 284 282 282 282 283 283 284 285 283 282 280 279 278 277 276 275 274 272 271 270 268 267 266 263 263 261 260 259
267 269 270 273 277 278 281 283 283 283 283 283 283 283 283 283 283 283 283 283 284 284 285 284 283 281 281 280 279 278 277 275 276 273 271 270 268 267 265 265 264 261 261
274 275 275 277 279 279 279 279 281 283 283 283 283 283 283 283 283 283 284 284 284 284 284 284 284 282 282 281 280 280 279 279 278 275 273 271 269 268 266 266 265 265 264
277 278 278 278 279 279 280 281 281 281 283 283 283 283 284 284 283 284 284 285 284 284 284 284 285 284 283 283 281 280 279 279 277 276 273 272 271 268 268 267 265 263 263
267 272 276 274 274 278 280 281 281 282 282 283 283 283 284 284 284 284 284 284 284 284 284 285 285 285 284 284 283 281 279 278 277 275 274 273 271 269 268 267 265 264 264
Wind_Speed
6 5 7 6 6 6 6 6 6 6 6 6 6 6 6 6 5 5 6 4 6 6 5 6 6 6 4 4 4 4 4 3 1 5 2 4 6 11 12 11 11 12 13
6 6 6 6 6 6 6 6 6 6 5 6 5 6 6 6 5 6 6 3 6 6 6 7 7 5 6 5 4 6 5 4 0 2 3 4 3 8 6 9 9 9 10
7 7 6 6 7 7 6 6 6 6 6 6 6 6 6 6 5 6 6 4 5 6 7 7 5 5 6 5 5 5 5 5 3 2 4 2 3 4 8 6 7 7 8
8 8 8 8 7 7 6 6 6 6 6 5 5 5 6 5 6 6 6 4 4 5 7 6 5 5 5 5 6 5 6 4 3 3 2 3 2 4 4 7 11 8 5
9 8 8 7 6 7 7 6 6 6 6 6 6 5 5 4 4 6 7 5 4 5 5 6 5 5 10 9 4 4 5 3 3 4 4 3 4 4 6 5 3 5 3
10 9 7 7 7 7 6 6 6 6 6 6 6 6 5 2 8 10 9 5 5 4 5 5 5 4 5 10 11 14 10 3 4 2 2 2 4 3 2 5 4 5 5
9 7 7 7 7 6 6 6 6 6 5 6 6 6 6 4 9 9 11 5 5 4 4 5 5 3 4 4 9 11 11 12 9 2 2 2 3 4 5 5 4 3 2
8 8 7 8 8 7 7 7 6 5 6 5 6 6 5 5 11 11 10 5 5 4 4 5 6 5 4 4 5 4 5 3 1 1 2 2 2 4 4 3 4 4 1
8 8 9 10 9 9 9 8 5 5 5 5 5 6 6 5 13 13 10 5 5 5 3 3 6 5 5 4 5 4 4 3 4 7 8 10 11 15 14 4 6 4 4
7 7 7 8 9 9 8 8 5 4 6 5 6 6 6 7 14 15 11 4 5 4 4 3 7 6 7 6 5 5 4 2 2 3 3 5 7 7 13 7 4 3 2
6 6 7 7 9 8 7 5 6 6 5 6 7 6 7 8 9 17 16 6 5 5 5 4 3 9 8 7 7 5 3 4 3 3 2 2 3 3 3 4 5 3 2
6 6 6 7 6 6 7 6 6 7 6 7 6 5 6 7 11 18 18 16 11 6 6 4 5 10 9 8 6 9 8 5 2 3 2 2 2 2 3 2 3 3 3
4 4 5 6 6 7 8 7 5 7 7 7 7 7 7 6 6 19 20 19 16 7 4 8 12 12 11 8 9 9 6 3 3 1 2 1 2 2 3 3 2 2 2
4 3 3 5 5 5 5 5 6 7 7 7 8 8 7 6 7 7 8 10 14 9 9 7 9 8 7 5 1 4 2 4 3 3 3 2 1 2 2 1 1 3 2
3 3 2 2 5 5 6 7 8 8 10 8 9 9 9 9 11 14 13 9 9 8 5 2 2 2 3 3 2 2 2 2 4 3 3 3 1 1 1 2 2 3 3
2 2 4 4 4 4 4 5 13 16 17 20 18 14 9 15 15 23 24 24 20 18 4 4 7 8 8 7 6 5 3 5 4 4 2 3 4 3 2 1 1 2 2
5 4 3 5 5 6 6 6 8 8 22 23 23 22 20 14 21 22 25 25 24 21 6 9 9 9 10 8 7 7 6 7 5 5 5 4 4 3 4 3 2 1 1
4 5 5 6 6 6 7 7 7 7 7 8 20 20 23 23 22 24 22 21 12 18 11 10 11 9 9 9 8 8 7 4 6 5 5 5 5 4 3 3 4 4 3
3 4 4 5 6 8 8 7 8 8 9 8 6 11 16 24 23 20 23 12 13 13 13 12 10 10 10 9 9 8 8 8 7 6 6 6 6 4 4 4 4 5 5
4 7 6 4 5 6 7 9 10 10 10 9 8 9 6 10 12 13 13 12 13 12 12 13 11 10 10 10 9 9 8 8 8 8 7 7 6 6 5 6 6 5 5
3 4 5 4 6 7 8 8 8 8 10 10 10 9 13 10 12 12 13 14 14 14 14 13 11 11 11 10 10 10 11 10 10 9 9 8 7 8 6 5 5 6 5
3 4 3 6 7 7 8 8 8 8 9 10 10 9 18 11 11 11 12 13 14 15 13 12 11 12 12 12 12 12 12 12 11 11 10 9 9 8 7 6 5 4 4
3 4 5 5 7 8 7 7 8 8 9 9 9 8 8 9 12 12 12 12 12 13 12 12 12 12 12 12 12 13 13 14 14 12 13 11 10 9 9 8 8 5 6
4 5 6 6 7 6 7 7 7 10 10 10 9 9 9 9 10 12 12 11 11 12 12 12 13 17 14 14 12 13 13 12 10 13 16 13 12 11 9 9 9 10 8
3 6 6 6 6 6 7 7 8 9 9 9 9 10 10 10 10 11 11 11 11 12 15 14 13 17 21 22 19 20 19 19 15 14 13 14 15 16 13 10 10 7 7
4 4 5 4 5 6 7 8 8 9 9 9 9 10 10 11 11 11 11 12 11 12 15 13 16 22 21 19 23 23 21 21 18 19 13 12 12 12 11 13 14 9 12
Wind_Direction
147 142 138 141 137 130 128 137 139 134 134 126 120 109 100 92 72 76 76 52 72 62 50 53 41 39 36 36 42 39 30 15 167 304 287 306 350 3 350 349 352 358 358
151 143 147 144 138 136 144 149 142 139 135 131 121 111 104 102 95 89 83 64 80 76 61 57 38 40 33 27 37 35 30 8 128 272 291 323 340 353 324 348 345 357 356
147 147 151 154 153 157 157 152 149 142 146 138 131 130 121 120 112 98 97 95 83 86 83 70 51 41 45 35 40 39 28 16 324 82 295 314 305 341 345 344 346 341 358
156 161 168 174 168 164 157 151 152 152 149 143 140 138 131 130 118 118 106 103 94 93 96 89 72 59 64 58 52 47 39 12 330 39 350 315 348 311 324 347 358 357 354
163 171 181 173 163 159 158 160 156 155 157 152 146 146 141 139 137 140 127 134 129 118 110 104 92 74 72 75 70 56 56 24 351 27 20 352 353 349 353 312 302 341 334
170 179 170 170 165 166 159 160 157 164 163 158 160 157 153 151 154 150 137 140 150 147 130 116 112 98 79 80 72 67 71 57 25 33 352 8 305 262 300 329 326 355 357
169 167 166 166 164 163 160 163 172 173 159 170 174 162 163 167 179 162 148 142 154 160 152 134 116 99 101 96 86 81 70 67 73 164 78 346 337 320 304 321 337 336 13
168 169 163 162 165 167 168 179 177 168 174 173 181 183 164 186 185 170 158 151 143 166 167 143 130 141 136 129 113 98 92 82 76 80 109 265 258 316 352 305 292 301 3
174 177 176 172 172 172 183 183 178 167 177 179 186 184 178 195 187 182 157 181 150 166 172 159 143 151 163 152 132 122 101 75 38 62 64 53 40 33 26 338 13 35 345
181 186 178 176 178 182 182 182 167 176 191 185 191 191 186 190 197 195 169 190 163 169 166 182 165 162 166 167 156 152 129 113 65 45 32 35 39 26 33 33 348 25 51
177 171 176 178 183 182 171 167 173 181 181 193 202 198 198 192 197 205 191 201 187 177 186 178 202 179 168 164 165 153 176 151 104 92 73 19 41 18 18 18 31 22 51
178 183 183 179 177 170 173 173 170 176 184 195 199 207 209 204 191 216 206 209 198 189 201 178 184 194 179 167 157 148 153 137 104 94 53 15 7 340 337 342 44 54 16
164 189 185 173 172 169 171 174 169 181 192 203 205 208 216 203 201 217 216 217 209 209 180 185 187 196 193 176 185 175 143 140 129 102 153 249 203 262 317 347 18 55 345
177 206 180 175 174 172 180 185 186 189 202 207 209 215 209 204 208 210 212 216 217 199 201 191 190 182 172 163 175 198 181 163 174 174 183 191 306 28 1 325 3 356 70
188 164 204 197 193 190 202 194 204 207 203 206 215 211 203 207 216 203 206 204 202 195 140 115 127 151 189 209 199 217 201 166 161 190 164 152 134 66 316 13 17 13 65
201 194 198 204 202 206 204 236 234 228 222 226 225 212 217 224 216 214 212 212 207 190 156 191 199 202 204 208 201 204 219 202 199 168 189 167 162 162 176 334 72 100 142
222 201 201 211 206 214 208 219 244 236 240 240 238 236 227 224 220 220 213 213 208 193 201 208 211 207 212 205 206 195 208 206 171 182 179 199 167 157 155 170 174 134 261
232 230 209 212 209 217 220 224 227 235 238 240 235 236 237 236 226 222 218 212 210 208 208 214 213 208 210 209 203 207 209 182 194 189 186 188 201 161 160 183 182 167 175
277 260 233 233 220 227 234 230 232 235 237 245 239 232 228 232 232 220 221 214 211 209 209 219 217 211 214 208 202 203 198 200 195 181 201 191 189 179 201 176 168 183 154
241 252 238 241 244 238 239 239 248 245 248 243 237 236 217 214 219 218 217 215 219 216 213 219 214 215 214 211 202 194 198 192 194 202 205 199 191 191 202 191 181 169 197
249 260 253 242 241 247 242 238 240 240 250 252 251 249 222 213 227 220 215 216 219 219 215 215 215 211 211 211 204 200 201 203 199 200 203 201 184 196 205 196 197 187 162
253 266 268 254 252 247 244 255 253 248 245 251 256 253 243 235 229 230 228 223 222 223 220 216 219 214 210 207 205 203 205 205 201 196 197 199 202 198 178 192 191 193 181
254 270 274 269 259 253 258 248 246 245 249 248 247 250 242 237 244 233 234 232 228 227 224 219 219 221 216 213 208 206 207 209 205 193 191 193 194 199 189 194 191 177 196
254 252 257 267 278 264 262 261 258 251 247 245 243 241 240 240 241 246 241 239 234 232 227 225 221 221 221 216 214 213 216 215 200 194 189 188 194 190 188 188 189 195 194
274 294 290 287 286 280 283 267 262 264 263 256 250 243 240 236 239 240 242 242 237 237 235 230 227 226 224 221 216 214 216 211 202 189 189 193 193 188 192 195 186 188 178
246 254 273 273 269 266 272 279 275 269 267 268 262 254 249 245 239 235 237 238 242 240 240 239 235 231 228 223 221 217 213 207 200 193 187 192 189 188 189 196 188 189 189